Probability
0 0 0 0 0 0 0 0 0 0 0 0 0 0 0 0 0 0 0 0 0 0 0 0 0 0 0 0 0 0 0 0 0 0 0 0 0 0
0 0 0 0 0 0 0 0 0 0 0 0 0 0 0 0 0 0 0 0 0 0 0 0 0 0 0 0 0 0 0 0 0 0 0 0 0 0
0 0 0 0 0 0 0 0 0 0 0 0 0 0 0 0 0 0 0 0 0 0 0 0 0 0 0 0 0 0 0 0 0 0 0 0 0 0
0 0 0 0 0 0 0 0 0 0 0 0 0 0 0 0 0 0 0 0 0 0 0 0 0 0 0 0 0 0 0 0 0 0 0 0 0 0
0 0 0 0 0 0 0 0 0 0 0 0 0 0 0 0 0 0 0 0 0 0 0 0 0 0 0 0 0 0 0 0 0 0 0 0 0 0
0 0 0 0 0 0 0 0 0 0 0 0 0 0 0 0 0 0 0 0 0 0 0 0 0 0 0 0 0 0 0 0 0 0 0 0 0 0
0 0 0 0 0 0 0 0 0 0 0 0 0 0 0 0 0 0 0 0 0 0 0 0 0 0 0 0 0 0 0 0 0 0 0 0 0 0
0 0 0 0 0 0 0 0 0 0 0 0 0 0 0 0 0 0 0 0 0 0 0 0 0 0 0 0 0 0 0 0 0 0 0 0 0 0
0 0 0 0 0 0 0 0 0 0 0 0 0 0 0 0 0 0 0 0 0 0 0 0 0 0 0 0 0 0 0 0 0 0 0 0 0 0
0 0 0 0 0 0 0 0 0 0 0 0 0 0 0 0 0 0 0 0 0 0 0 0 0 0 0 0 0 0 0 0 0 0 0 0 0 0
0 0 0 0 0 0 0 0 0 0 0 0 0 0 0 0 0 0 0 0 0 0 0 0 0 0 0 0 0 0 0 0 0 0 0 0 0 0
0 0 0 0 0 0 0 0 0 0 0 0 0 0 0 0 0 0 0 0 0 0 0 0 0 0 0 0 0 0 0 0 0 0 0 0 0 0
0 0 0 0 0 0 0 0 0 0 0 0 0 0 0 0 0 0 0 0 0 0 0 0 0 0 0 0 0 0 0 0 0 0 0 0 0 0
0 0 0 0 0 0 0 0 0 0 0 0 0 0 0 0 0 0 0 0 0 0 0 0 0 0 0 0 0 0 0 0 0 0 0 0 0 0
0 0 0 0 0 0 0 0 0 0 0 0 0 0 0 0 0 0 0 0 0 0 0 0 0 0 0 0 0 0 0 0 0 0 0 0 0 0
0 0 0 0 0 0 0 0 0 0 0 0 0 0 0 0 0 0 0 0 0 0 0 0 0 0 0 0 0 0 0 0 0 0 0 0 0 0
0 0 0 0 0 0 0 0 0 0 0 0 0 0 0 0 0 0 0 0 0 0 0 0 0 0 0 0 0 0 0 0 0 0 0 0 0 0
0 0 0 0 0 0 0 0 0 0 0 0 0 0 0 0 0 0 0 0 0 0 0 0 0 0 0 0 0 0 0 0 0 0 0 0 0 0
0 0 0 0 0 0 0 0 0 0 0 0 0 0 0 0 0 0 0 0 0 0 0 0 0 0 0 0 0 0 0 0 0 0 0 0 0 0
0 0 0 0 0 0 0 0 0 0 0 0 0 0 0 0 0 0 0 0 0 0 0 0 0 0 0 0 0 0 0 0 0 0 0 0 0 0
0 0 0 0 0 0 0 0 0 0 0 0 0 0 0 0 0 0 0 0 0 0 0 0 0 0 0 0 0 0 0 0 0 0 0 0 0 0
0 0 0 0 0 0 0 0 0 0 0 0 0 0 0 0 0 0 0 0 0 0 0 0 0 0 0 0 0 0 0 0 0 0 0 0 0 0
0 0 0 0 0 0 0 0 0 0 0 0 0 0 0 0 0 0 0 0 0 0 0 0 0 0 0 0 0 0 0 0 0 0 0 0 0 0
Height
5677 5678 5679 5682 5685 5686 5688 5690 5692 5693 5695 5696 5696 5696 5695 5694 5694 5693 5692 5691 5689 5687 5687 5685 5684 5682 5681 5680 5679 5677 5676 5674 5673 5672 5671 5670 5669 5668
5658 5659 5661 5664 5666 5669 5672 5674 5676 5678 5679 5682 5682 5681 5680 5679 5679 5678 5677 5676 5674 5673 5671 5669 5667 5666 5664 5662 5661 5659 5657 5656 5654 5653 5651 5650 5648 5647
5640 5641 5643 5646 5649 5653 5655 5658 5661 5664 5665 5666 5667 5666 5666 5665 5664 5663 5662 5661 5659 5657 5654 5652 5651 5648 5646 5644 5642 5640 5638 5636 5634 5632 5630 5628 5626 5625
5623 5624 5627 5630 5633 5637 5640 5644 5647 5649 5651 5652 5653 5652 5651 5650 5649 5648 5647 5645 5642 5639 5637 5635 5632 5630 5627 5624 5622 5620 5617 5615 5612 5610 5608 5605 5603 5600
5609 5610 5612 5615 5619 5623 5627 5630 5633 5635 5637 5639 5639 5639 5637 5636 5634 5632 5630 5627 5624 5621 5619 5616 5613 5610 5607 5604 5601 5599 5596 5593 5591 5587 5584 5581 5578 5575
5598 5599 5601 5603 5607 5610 5614 5617 5620 5623 5625 5626 5626 5625 5623 5621 5619 5617 5614 5611 5607 5604 5600 5597 5594 5590 5587 5583 5580 5577 5574 5570 5567 5564 5560 5557 5553 5549
5590 5591 5592 5594 5597 5600 5603 5606 5609 5611 5612 5613 5612 5611 5609 5607 5604 5601 5598 5594 5590 5586 5583 5578 5574 5570 5566 5562 5557 5554 5550 5547 5543 5539 5535 5531 5527 5523
5584 5584 5585 5587 5590 5592 5595 5597 5599 5600 5601 5600 5600 5598 5595 5593 5589 5586 5582 5578 5574 5570 5566 5560 5555 5550 5544 5539 5534 5530 5526 5522 5518 5514 5510 5506 5502 5499
5581 5581 5581 5582 5584 5585 5587 5589 5590 5590 5590 5589 5587 5585 5582 5579 5575 5571 5566 5561 5556 5551 5548 5541 5534 5529 5522 5516 5511 5507 5503 5498 5495 5491 5487 5484 5480 5478
5580 5579 5579 5579 5580 5581 5581 5582 5582 5581 5580 5578 5576 5572 5568 5564 5560 5555 5550 5544 5538 5532 5528 5523 5515 5509 5501 5494 5489 5485 5481 5478 5474 5470 5467 5465 5462 5460
5579 5578 5577 5577 5577 5576 5576 5575 5574 5572 5570 5566 5563 5559 5555 5550 5545 5539 5533 5527 5520 5513 5509 5504 5497 5492 5483 5476 5470 5466 5463 5460 5457 5454 5451 5449 5446 5444
5578 5577 5575 5574 5572 5571 5569 5567 5565 5563 5559 5555 5551 5546 5540 5534 5528 5522 5516 5509 5502 5495 5489 5485 5479 5475 5471 5462 5456 5452 5449 5446 5444 5441 5438 5435 5432 5430
5576 5574 5571 5569 5567 5565 5562 5559 5556 5552 5548 5543 5537 5532 5525 5519 5512 5505 5498 5491 5484 5478 5473 5469 5464 5459 5456 5453 5446 5441 5437 5434 5431 5428 5425 5422 5419 5416
5572 5569 5566 5563 5560 5557 5553 5549 5545 5540 5535 5529 5523 5516 5510 5502 5495 5488 5481 5474 5468 5463 5458 5455 5451 5447 5444 5441 5437 5432 5427 5423 5420 5417 5414 5410 5406 5403
5567 5563 5560 5556 5552 5548 5543 5538 5533 5528 5522 5515 5508 5501 5494 5486 5479 5472 5466 5460 5455 5450 5445 5442 5439 5435 5432 5428 5425 5421 5417 5413 5408 5405 5403 5399 5395 5391
5560 5556 5552 5548 5543 5538 5533 5527 5521 5515 5508 5501 5494 5486 5479 5471 5465 5459 5453 5448 5443 5438 5433 5429 5426 5423 5419 5416 5412 5408 5404 5400 5397 5393 5391 5388 5383 5379
5553 5549 5544 5539 5534 5528 5522 5516 5509 5502 5495 5487 5479 5471 5464 5458 5452 5446 5442 5437 5433 5428 5422 5417 5413 5410 5406 5403 5399 5395 5390 5387 5384 5381 5378 5376 5372 5367
5545 5540 5535 5529 5523 5517 5510 5503 5496 5488 5481 5473 5465 5458 5451 5445 5439 5434 5430 5425 5421 5416 5411 5406 5402 5398 5395 5391 5386 5381 5378 5374 5371 5368 5364 5363 5362 5356
5536 5531 5525 5519 5512 5506 5499 5491 5483 5475 5467 5459 5452 5445 5439 5433 5427 5422 5417 5413 5408 5404 5399 5394 5389 5385 5383 5381 5378 5370 5364 5361 5359 5356 5353 5350 5349 5346
5527 5521 5515 5508 5501 5494 5487 5479 5470 5462 5454 5446 5439 5432 5426 5420 5414 5409 5404 5399 5395 5391 5387 5381 5376 5372 5368 5366 5365 5361 5352 5347 5345 5344 5341 5338 5336 5333
5517 5511 5504 5497 5490 5482 5474 5466 5457 5449 5441 5433 5426 5419 5412 5407 5401 5396 5390 5385 5381 5377 5374 5369 5364 5359 5354 5352 5351 5350 5344 5336 5331 5329 5327 5325 5324 5322
5508 5501 5494 5486 5478 5470 5461 5453 5444 5435 5427 5420 5412 5406 5399 5393 5388 5382 5377 5372 5367 5363 5360 5356 5351 5347 5342 5339 5337 5336 5333 5327 5321 5317 5313 5310 5309 5310
5498 5490 5483 5475 5466 5458 5449 5440 5431 5422 5414 5407 5399 5393 5386 5380 5374 5368 5363 5358 5353 5349 5346 5343 5339 5335 5330 5326 5324 5322 5319 5315 5311 5308 5305 5298 5295 5295
Wind_Speed
67 66 65 63 62 62 61 60 58 57 56 55 55 55 54 52 50 51 52 53 52 53 54 55 57 57 58 58 58 58 59 60 61 61 62 62 63 64
65 64 63 62 61 60 60 59 58 57 56 56 56 55 57 55 54 53 54 54 54 56 57 58 58 59 60 61 61 62 62 63 64 65 65 66 67 68
60 60 60 60 59 58 58 59 58 58 58 58 58 58 59 57 56 56 56 56 58 59 61 62 62 63 63 64 64 64 64 65 66 66 68 69 70 71
53 54 55 56 56 56 56 57 57 58 59 59 59 59 60 59 60 59 60 61 62 62 63 64 65 66 65 65 65 66 66 67 67 68 69 70 72 73
45 47 48 50 52 53 54 54 55 56 58 59 59 59 60 61 61 61 62 62 63 65 66 66 67 66 65 66 67 67 68 68 69 70 71 73 74 75
38 40 42 43 46 48 49 50 51 53 54 55 56 57 60 61 61 62 64 65 65 66 66 67 67 67 67 68 67 68 69 70 71 72 73 74 75 76
31 33 34 36 39 41 42 44 46 47 49 52 54 55 57 58 59 60 62 62 63 64 65 66 66 67 68 69 70 70 71 72 73 73 74 74 73 73
25 26 28 29 31 33 35 39 41 44 46 48 51 52 54 56 57 59 60 61 62 63 64 65 67 68 69 70 71 71 72 72 71 71 70 68 67 66
19 20 21 23 26 28 31 34 36 39 42 45 48 50 52 53 55 56 57 59 61 63 64 66 67 67 68 69 69 68 68 66 65 63 61 60 58 57
13 15 16 19 21 24 27 31 34 36 39 42 44 47 49 51 53 55 58 61 63 65 65 65 65 64 64 64 63 61 59 57 55 53 52 50 49 48
13 14 15 17 20 23 26 28 31 34 37 40 42 45 49 52 55 58 60 61 63 64 63 61 60 58 56 55 53 51 49 47 46 44 43 42 42 42
14 16 17 18 21 23 26 29 32 35 38 42 45 48 51 54 57 59 60 61 61 60 58 55 53 50 46 46 46 45 43 42 40 39 39 39 39 39
17 19 20 22 24 26 29 32 35 38 41 45 48 51 54 56 58 59 58 57 56 54 51 48 46 44 40 38 39 41 40 40 39 39 40 40 39 38
21 22 24 26 29 31 34 37 40 42 45 48 51 53 55 56 57 56 54 52 49 46 44 42 39 39 37 36 36 37 39 39 39 39 39 40 40 40
25 27 28 30 33 35 38 40 43 46 48 51 53 54 55 55 54 52 48 45 42 41 40 39 38 37 36 35 34 35 36 37 39 38 37 38 39 39
29 31 32 34 37 39 41 43 46 48 50 52 53 54 54 52 49 46 43 41 40 40 40 39 38 37 36 36 35 35 36 36 36 36 36 35 37 38
32 34 36 37 39 41 43 45 47 50 51 52 52 52 50 47 45 42 41 39 38 38 39 40 39 38 37 37 37 37 37 36 36 35 34 32 34 36
35 37 38 40 42 43 46 48 49 51 51 51 50 48 46 44 43 42 41 40 39 39 40 40 41 40 39 38 39 38 38 37 36 36 35 33 31 35
38 39 41 42 44 46 47 49 50 51 50 50 48 46 45 43 43 42 42 41 41 41 41 42 42 42 41 38 36 39 39 37 36 35 35 33 31 31
39 41 42 44 46 47 49 50 50 50 49 48 47 46 44 43 43 43 43 43 42 42 42 42 44 44 43 40 35 34 39 39 37 35 34 33 32 31
41 43 44 46 48 49 50 51 51 50 49 48 46 45 45 44 43 43 43 44 44 43 42 42 43 44 43 40 36 33 35 39 39 37 35 33 31 30
43 44 46 48 49 51 51 52 51 50 49 47 46 45 45 44 44 44 44 44 43 43 42 42 42 42 42 41 38 34 33 35 38 38 38 37 34 29
45 47 48 50 51 52 52 52 51 50 48 46 45 45 44 44 44 44 44 43 43 42 42 41 40 40 40 40 39 37 35 35 35 35 35 38 38 34
Wind_Direction
267 265 264 263 262 262 263 264 266 267 269 271 273 276 277 277 278 278 277 277 279 279 279 281 282 282 281 280 280 280 280 279 277 276 276 275 275 275
266 264 262 261 260 260 260 261 263 265 267 269 272 275 277 277 279 280 279 280 281 281 282 283 283 283 282 282 281 280 280 280 279 278 277 277 276 276
266 263 261 259 258 258 258 258 260 262 264 267 270 273 274 277 279 281 282 282 283 283 283 283 283 284 284 283 282 281 281 280 280 279 279 279 278 277
267 263 260 258 256 256 256 257 259 261 263 266 269 272 275 279 281 282 282 283 284 284 284 284 284 284 284 283 283 283 282 281 281 281 281 280 279 278
269 265 262 258 255 254 255 256 258 261 264 267 270 273 277 279 281 282 282 283 285 285 284 284 285 285 285 284 284 284 283 282 282 282 281 280 279 279
272 267 263 259 256 254 255 257 259 262 265 268 271 273 276 279 280 281 282 284 285 286 286 286 287 287 287 286 286 285 284 284 283 282 281 281 280 279
272 266 263 260 256 255 256 257 259 262 266 268 271 274 277 279 281 282 284 285 287 287 288 288 289 289 289 288 288 287 286 285 284 283 282 281 280 279
274 269 265 263 260 258 258 259 262 265 267 269 272 275 278 280 282 284 285 287 288 289 290 291 291 291 290 289 289 288 287 286 285 284 282 281 279 278
277 272 272 266 264 261 260 261 264 268 271 274 277 279 281 283 285 287 288 290 291 292 292 293 293 292 291 290 290 289 288 287 285 284 282 280 279 277
288 282 277 271 269 271 270 270 272 275 278 280 281 284 286 288 290 291 292 293 294 294 295 295 294 294 293 292 291 289 288 287 286 284 283 281 280 278
308 301 293 287 285 282 281 281 282 284 286 288 289 290 292 293 294 295 295 296 296 296 296 296 295 294 294 293 292 290 290 289 288 287 285 283 281 280
316 311 305 301 297 295 294 293 293 294 294 294 295 295 296 297 297 297 298 298 298 297 297 296 295 294 293 293 292 291 291 291 290 289 288 287 285 283
318 314 311 307 305 303 301 300 300 299 299 299 298 299 299 299 299 299 300 299 299 297 297 296 295 294 293 291 291 291 291 291 290 290 291 290 288 286
317 314 312 310 308 307 305 304 303 302 302 302 302 302 302 302 301 301 300 300 299 298 297 297 296 294 293 291 289 288 288 288 288 288 289 289 289 287
315 314 312 311 310 309 307 306 305 305 305 305 304 304 304 303 302 301 301 300 300 299 299 298 297 296 295 293 290 288 286 286 287 287 288 288 287 286
314 313 312 312 311 310 308 308 307 307 307 306 306 306 305 303 302 301 300 300 300 300 300 299 299 299 298 297 295 292 290 288 287 287 288 287 286 285
313 312 312 312 311 311 311 310 310 309 309 308 307 306 305 303 301 300 299 298 298 299 300 301 301 301 301 301 299 297 294 293 291 290 289 289 287 286
314 313 313 313 312 312 312 312 311 311 310 309 308 306 304 302 300 298 297 297 297 298 298 299 299 300 301 302 302 299 296 295 293 293 292 290 289 288
315 314 314 314 314 314 314 313 313 312 311 309 307 305 302 300 298 296 296 295 296 296 297 297 297 298 299 300 300 299 296 294 293 292 292 291 290 287
316 315 315 315 315 315 315 315 314 312 311 309 307 304 302 299 298 296 295 295 295 295 296 296 297 298 299 300 300 298 296 295 294 293 292 291 292 290
317 316 317 317 317 317 317 316 315 313 312 309 307 304 302 300 298 297 296 295 294 294 294 295 296 297 298 299 299 298 296 296 296 295 293 292 291 290
317 318 318 318 318 318 318 317 316 314 312 310 307 305 303 301 299 298 297 296 295 294 294 294 294 295 296 297 299 298 295 294 294 296 296 295 293 291
319 319 319 319 319 319 318 318 316 315 313 311 308 306 304 302 301 300 299 297 296 295 294 294 293 293 295 296 297 297 296 293 292 292 294 294 295 295